DLH438 EDDF-KDFW

Flight info

Callsign DLH438
Flight time N/A
Altitude 32000
Route OBOKA5G OBOKA Z28 DIBIR DCT BUDIP DCT GODOS DCT RIMOL DCT STN/N0473F340 DCT BALIX/M081F340 DCT 6030N02000W 6230N03000W 64N040W 64N050W/M082F360 DCT EMBOK DCT IKMAN/N0474F360 DCT FEDDY DCT KEMSA DCT TADIS/N0468F380 DCT DLH DCT GEP J21 ONTIJ DCT OVR DCT PER DCT IBAKE JOVEM6
Aircraft A343/H-SDE2E3FGHIJ3J5M1P2RWXYZ/LB1D1

Departure

Time 2026-04-19 09:55
Airport Frankfurt Main Airport (EDDF)

Arrival

Time N/A
Airport Dallas Fort Worth International Airport (KDFW)
Time Latitude Longitude Altitude Speed Heading
2026-04-19 08:14 50.04671 8.56046 360 ft 0 kts 340°
2026-04-19 09:38 50.04668 8.56048 360 ft 3 kts 340°
2026-04-19 09:39 50.04642 8.56062 367 ft 4 kts 339°
2026-04-19 09:39 50.04617 8.56078 366 ft 4 kts 333°
2026-04-19 09:39 50.04596 8.56100 368 ft 4 kts 301°
2026-04-19 09:39 50.04594 8.56129 360 ft 4 kts 251°
2026-04-19 09:40 50.04603 8.56168 368 ft 4 kts 250°
2026-04-19 09:40 50.04612 8.56207 360 ft 4 kts 250°
2026-04-19 09:40 50.04621 8.56247 364 ft 4 kts 250°
2026-04-19 09:40 50.04631 8.56287 367 ft 4 kts 249°
2026-04-19 09:41 50.04640 8.56326 360 ft 4 kts 249°
2026-04-19 09:41 50.04650 8.56365 366 ft 4 kts 249°
2026-04-19 09:41 50.04656 8.56390 360 ft 0 kts 250°
2026-04-19 09:44 50.04653 8.56379 360 ft 2 kts 250°
2026-04-19 09:45 50.04645 8.56343 367 ft 5 kts 250°
2026-04-19 09:45 50.04630 8.56284 360 ft 5 kts 250°
2026-04-19 09:45 50.04617 8.56226 367 ft 7 kts 250°
2026-04-19 09:45 50.04598 8.56147 366 ft 9 kts 250°
2026-04-19 09:46 50.04574 8.56050 360 ft 10 kts 248°
2026-04-19 09:46 50.04530 8.55962 368 ft 10 kts 210°
2026-04-19 09:46 50.04470 8.55929 366 ft 9 kts 197°
2026-04-19 09:46 50.04403 8.55910 363 ft 11 kts 181°
2026-04-19 09:47 50.04320 8.55943 363 ft 13 kts 160°
2026-04-19 09:47 50.04237 8.55936 364 ft 12 kts 205°
2026-04-19 09:47 50.04154 8.55937 365 ft 12 kts 162°
2026-04-19 09:47 50.04082 8.55996 364 ft 11 kts 128°
2026-04-19 09:48 50.04086 8.56105 355 ft 10 kts 72°
2026-04-19 09:48 50.04111 8.56208 360 ft 10 kts 69°
2026-04-19 09:48 50.04136 8.56316 361 ft 11 kts 70°
2026-04-19 09:48 50.04162 8.56424 363 ft 11 kts 69°
2026-04-19 09:49 50.04188 8.56531 362 ft 11 kts 69°
2026-04-19 09:49 50.04214 8.56639 366 ft 11 kts 69°
2026-04-19 09:49 50.04239 8.56743 368 ft 10 kts 69°
2026-04-19 09:49 50.04263 8.56844 367 ft 11 kts 70°
2026-04-19 09:50 50.04294 8.56975 369 ft 16 kts 70°
2026-04-19 09:50 50.04334 8.57142 370 ft 16 kts 69°
2026-04-19 09:50 50.04371 8.57297 372 ft 15 kts 70°
2026-04-19 09:50 50.04405 8.57442 370 ft 14 kts 70°
2026-04-19 09:51 50.04437 8.57575 373 ft 12 kts 70°
2026-04-19 09:51 50.04465 8.57691 371 ft 12 kts 69°
2026-04-19 09:51 50.04495 8.57816 370 ft 13 kts 69°
2026-04-19 09:51 50.04527 8.57950 370 ft 14 kts 69°
2026-04-19 09:52 50.04563 8.58100 366 ft 16 kts 70°
2026-04-19 09:52 50.04598 8.58248 372 ft 13 kts 69°
2026-04-19 09:52 50.04629 8.58373 375 ft 12 kts 69°
2026-04-19 09:52 50.04654 8.58497 375 ft 11 kts 87°
2026-04-19 09:53 50.04611 8.58576 376 ft 10 kts 154°
2026-04-19 09:53 50.04546 8.58618 374 ft 10 kts 158°
2026-04-19 09:53 50.04492 8.58599 377 ft 8 kts 230°
2026-04-19 09:53 50.04473 8.58531 375 ft 5 kts 249°
2026-04-19 09:54 50.04460 8.58481 377 ft 8 kts 249°
2026-04-19 09:54 50.04401 8.58237 376 ft 49 kts 250°
2026-04-19 09:54 50.04216 8.57457 371 ft 102 kts 249°
2026-04-19 09:54 50.03912 8.56188 362 ft 147 kts 250°
2026-04-19 09:55 50.03502 8.54566 622 ft 163 kts 249°
2026-04-19 09:55 50.03079 8.52960 1183 ft 161 kts 250°
2026-04-19 09:55 50.02770 8.51901 1501 ft 167 kts 242°
2026-04-19 09:55 50.01483 8.50412 1997 ft 184 kts 200°
2026-04-19 09:56 50.00668 8.49936 2114 ft 193 kts 201°
2026-04-19 09:56 49.99370 8.49176 2375 ft 205 kts 202°
2026-04-19 09:56 49.98016 8.48375 2675 ft 212 kts 201°
2026-04-19 09:56 49.96623 8.47522 3090 ft 217 kts 202°
2026-04-19 09:57 49.95172 8.46771 3406 ft 227 kts 196°
2026-04-19 09:57 49.93588 8.46063 3643 ft 243 kts 197°
2026-04-19 09:57 49.91979 8.45207 4062 ft 246 kts 208°
2026-04-19 09:57 49.90696 8.43513 4558 ft 241 kts 238°
2026-04-19 09:58 49.89847 8.41324 5308 ft 233 kts 241°
2026-04-19 09:58 49.89042 8.39123 5847 ft 237 kts 242°
2026-04-19 09:58 49.88478 8.36728 6338 ft 237 kts 263°
2026-04-19 09:58 49.88498 8.34146 6771 ft 243 kts 273°
2026-04-19 09:59 49.88657 8.31515 7235 ft 247 kts 273°
2026-04-19 09:59 49.88948 8.28881 7735 ft 250 kts 284°
2026-04-19 09:59 49.89702 8.26430 8112 ft 259 kts 302°
2026-04-19 09:59 49.91049 8.24527 8204 ft 268 kts 319°
2026-04-19 10:00 49.92581 8.22899 8187 ft 265 kts 323°
2026-04-19 10:00 49.94088 8.21346 8164 ft 263 kts 323°
2026-04-19 10:00 49.95610 8.19759 8382 ft 264 kts 324°
2026-04-19 10:00 49.97177 8.18110 8766 ft 272 kts 324°
2026-04-19 10:01 49.98751 8.16439 9309 ft 276 kts 323°
2026-04-19 10:01 50.00319 8.14765 9860 ft 278 kts 323°
2026-04-19 10:01 50.01920 8.13052 10399 ft 281 kts 322°
2026-04-19 10:01 50.03561 8.11293 10671 ft 292 kts 322°
2026-04-19 10:02 50.05293 8.09430 10893 ft 305 kts 322°
2026-04-19 10:02 50.07049 8.07544 11115 ft 316 kts 322°
2026-04-19 10:02 50.08892 8.05562 11341 ft 328 kts 322°
2026-04-19 10:02 50.10821 8.03487 11629 ft 337 kts 322°
2026-04-19 10:03 50.12764 8.01397 12022 ft 342 kts 322°
2026-04-19 10:03 50.14731 7.99279 12572 ft 345 kts 322°
2026-04-19 10:03 50.16715 7.97139 13077 ft 349 kts 322°
2026-04-19 10:03 50.18713 7.94981 13620 ft 351 kts 321°
2026-04-19 10:04 50.20727 7.92805 14134 ft 353 kts 321°
2026-04-19 10:04 50.22756 7.90609 14580 ft 356 kts 321°
2026-04-19 10:04 50.24800 7.88394 15031 ft 359 kts 321°
2026-04-19 10:04 50.26858 7.86162 15474 ft 361 kts 321°
2026-04-19 10:05 50.28929 7.83914 15924 ft 364 kts 321°
2026-04-19 10:05 50.31000 7.81666 16545 ft 361 kts 321°
2026-04-19 10:05 50.33060 7.79424 17071 ft 362 kts 321°
2026-04-19 10:05 50.35134 7.77165 17519 ft 364 kts 321°
2026-04-19 10:06 50.37218 7.74892 17999 ft 366 kts 321°
2026-04-19 10:06 50.39316 7.72600 18468 ft 368 kts 321°
2026-04-19 10:06 50.41431 7.70286 18695 ft 376 kts 321°
2026-04-19 10:06 50.43587 7.67924 19053 ft 378 kts 321°
2026-04-19 10:07 50.45747 7.65559 19491 ft 379 kts 321°
2026-04-19 10:07 50.47913 7.63184 19915 ft 380 kts 321°
2026-04-19 10:07 50.50083 7.60799 20332 ft 382 kts 321°
2026-04-19 10:07 50.52265 7.58401 20729 ft 383 kts 321°
2026-04-19 10:08 50.54448 7.55998 21140 ft 384 kts 321°
2026-04-19 10:08 50.56647 7.53575 21528 ft 386 kts 321°
2026-04-19 10:08 50.58849 7.51147 21910 ft 387 kts 321°
2026-04-19 10:08 50.61060 7.48706 22273 ft 389 kts 321°
2026-04-19 10:09 50.63282 7.46250 22648 ft 390 kts 321°
2026-04-19 10:09 50.65488 7.43809 23174 ft 389 kts 321°
2026-04-19 10:09 50.67716 7.41338 23306 ft 396 kts 321°
2026-04-19 10:09 50.69983 7.38821 23598 ft 399 kts 321°
2026-04-19 10:10 50.72247 7.36288 23914 ft 399 kts 320°
2026-04-19 10:10 50.74360 7.33462 24151 ft 398 kts 311°
2026-04-19 10:10 50.76140 7.30193 24407 ft 398 kts 306°
2026-04-19 10:10 50.77824 7.26649 24666 ft 399 kts 304°
2026-04-19 10:11 50.79431 7.23059 24914 ft 401 kts 303°
2026-04-19 10:11 50.81021 7.19423 25149 ft 403 kts 303°
2026-04-19 10:11 50.82591 7.15813 25397 ft 405 kts 303°
2026-04-19 10:11 50.84195 7.12141 25649 ft 407 kts 303°
2026-04-19 10:12 50.85812 7.08462 25874 ft 408 kts 303°
2026-04-19 10:12 50.87441 7.04771 26105 ft 409 kts 303°
2026-04-19 10:12 50.89083 7.01063 26654 ft 404 kts 303°
2026-04-19 10:12 50.90680 6.97462 26881 ft 406 kts 303°
2026-04-19 10:13 50.92308 6.93790 27038 ft 409 kts 303°
2026-04-19 10:13 50.93939 6.90099 27243 ft 411 kts 303°
2026-04-19 10:13 50.95581 6.86375 27456 ft 412 kts 303°
2026-04-19 10:13 50.97228 6.82635 27642 ft 414 kts 303°
2026-04-19 10:14 50.98881 6.78876 27847 ft 416 kts 303°
2026-04-19 10:14 51.00539 6.75101 28029 ft 418 kts 303°
2026-04-19 10:14 51.02204 6.71304 28246 ft 420 kts 303°
2026-04-19 10:14 51.03873 6.67492 28422 ft 421 kts 303°
2026-04-19 10:15 51.05549 6.63663 28624 ft 423 kts 303°
2026-04-19 10:15 51.07226 6.59825 28940 ft 422 kts 303°
2026-04-19 10:15 51.08898 6.55993 29216 ft 421 kts 303°
2026-04-19 10:15 51.10572 6.52157 29457 ft 422 kts 303°
2026-04-19 10:16 51.12241 6.48321 29681 ft 422 kts 303°
2026-04-19 10:16 51.13906 6.44479 29907 ft 422 kts 303°
2026-04-19 10:16 51.15574 6.40626 30170 ft 422 kts 303°
2026-04-19 10:16 51.17237 6.36776 30317 ft 424 kts 303°
2026-04-19 10:17 51.18920 6.32875 30365 ft 428 kts 303°
2026-04-19 10:17 51.20603 6.28971 30576 ft 427 kts 303°
2026-04-19 10:17 51.22284 6.25068 30755 ft 427 kts 303°
2026-04-19 10:17 51.23963 6.21167 30931 ft 427 kts 303°
2026-04-19 10:18 51.25646 6.17251 31161 ft 425 kts 303°
2026-04-19 10:18 51.27309 6.13373 31448 ft 423 kts 303°
2026-04-19 10:18 51.28964 6.09496 31601 ft 424 kts 303°
2026-04-19 10:19 51.32205 6.01608 31863 ft 425 kts 302°
2026-04-19 10:19 51.33805 5.97651 32031 ft 425 kts 302°
2026-04-19 10:19 51.35410 5.93679 32178 ft 425 kts 302°
2026-04-19 10:19 51.37082 5.89861 32211 ft 422 kts 307°
2026-04-19 10:20 51.41253 5.83358 32214 ft 419 kts 318°
2026-04-19 10:20 51.45830 5.77530 32214 ft 422 kts 320°
2026-04-19 10:21 51.50491 5.71786 32213 ft 421 kts 320°
2026-04-19 10:21 51.55124 5.66059 32212 ft 420 kts 320°
2026-04-19 10:22 51.59744 5.60295 32229 ft 420 kts 320°
2026-04-19 10:22 51.64357 5.54506 32230 ft 420 kts 319°
2026-04-19 10:23 51.68960 5.48716 32247 ft 421 kts 320°
2026-04-19 10:23 51.73582 5.42885 32230 ft 423 kts 320°
2026-04-19 10:24 51.78211 5.37033 32231 ft 423 kts 320°
2026-04-19 10:24 51.82832 5.31177 32232 ft 421 kts 320°
2026-04-19 10:25 51.87418 5.25350 32230 ft 419 kts 320°
2026-04-19 10:25 51.91998 5.19513 32235 ft 418 kts 319°
2026-04-19 10:26 51.96577 5.13660 32237 ft 421 kts 320°
2026-04-19 10:26 52.01179 5.07762 32237 ft 422 kts 320°
2026-04-19 10:27 52.05785 5.01847 32237 ft 422 kts 320°
2026-04-19 10:27 52.10385 4.95923 32250 ft 422 kts 319°
2026-04-19 10:28 52.14982 4.89982 32251 ft 422 kts 319°
2026-04-19 10:28 52.19564 4.84046 32270 ft 420 kts 320°
2026-04-19 10:29 52.24144 4.78095 32265 ft 422 kts 320°
2026-04-19 10:29 52.28733 4.72120 32266 ft 422 kts 320°
2026-04-19 10:30 52.33289 4.66175 32237 ft 422 kts 320°
2026-04-19 10:30 52.37902 4.60135 32239 ft 422 kts 319°
2026-04-19 10:31 52.42451 4.54161 32243 ft 422 kts 319°
2026-04-19 10:31 52.47032 4.48127 32246 ft 424 kts 320°
2026-04-19 10:32 52.51643 4.42037 32247 ft 426 kts 320°
2026-04-19 10:32 52.56252 4.35939 32249 ft 426 kts 319°
2026-04-19 10:33 52.60869 4.29809 32246 ft 426 kts 319°
2026-04-19 10:33 52.65472 4.23680 32247 ft 426 kts 319°
2026-04-19 10:34 52.70076 4.17534 32252 ft 426 kts 320°
2026-04-19 10:34 52.74702 4.11342 32253 ft 430 kts 319°
2026-04-19 10:35 52.79343 4.05112 32253 ft 430 kts 319°
2026-04-19 10:35 52.83976 3.98876 32264 ft 427 kts 319°
2026-04-19 10:36 52.88562 3.92687 32262 ft 424 kts 319°
2026-04-19 10:36 52.93130 3.86499 32257 ft 424 kts 319°
2026-04-19 10:37 52.97703 3.80285 32270 ft 427 kts 319°
2026-04-19 10:37 53.02305 3.74017 32271 ft 429 kts 319°
2026-04-19 10:38 53.06917 3.67720 32267 ft 429 kts 319°
2026-04-19 10:38 53.11523 3.61414 32280 ft 429 kts 319°
2026-04-19 10:39 53.16121 3.55101 32293 ft 428 kts 319°
2026-04-19 10:39 53.20690 3.48808 32298 ft 425 kts 319°
2026-04-19 10:40 53.25252 3.42507 32281 ft 427 kts 319°
2026-04-19 10:40 53.29737 3.35991 32280 ft 427 kts 317°
2026-04-19 10:41 53.33400 3.30437 32282 ft 427 kts 317°
2026-04-19 10:41 53.37805 3.23762 32272 ft 427 kts 317°
2026-04-19 10:42 53.42227 3.17102 32274 ft 427 kts 317°
2026-04-19 10:42 53.46652 3.10446 32282 ft 427 kts 317°
2026-04-19 10:43 53.51062 3.03796 32276 ft 424 kts 317°
2026-04-19 10:43 53.55439 2.97175 32257 ft 423 kts 317°
2026-04-19 10:44 53.59807 2.90545 32278 ft 423 kts 317°
2026-04-19 10:44 53.64176 2.83892 32261 ft 423 kts 317°
2026-04-19 10:45 53.68539 2.77233 32279 ft 423 kts 317°
2026-04-19 10:45 53.72901 2.70556 32274 ft 424 kts 317°
2026-04-19 10:46 53.77275 2.63842 32277 ft 425 kts 316°
2026-04-19 10:46 53.81644 2.57113 32280 ft 424 kts 316°
2026-04-19 10:47 53.85957 2.50452 32286 ft 422 kts 316°
2026-04-19 10:47 53.90288 2.43742 32287 ft 422 kts 316°
2026-04-19 10:48 53.94616 2.37015 32287 ft 422 kts 316°
2026-04-19 10:48 53.98942 2.30275 32287 ft 422 kts 316°
2026-04-19 10:49 54.03283 2.23490 32291 ft 424 kts 316°
2026-04-19 10:49 54.07622 2.16689 32291 ft 424 kts 316°
2026-04-19 10:50 54.11957 2.09876 32300 ft 424 kts 316°
2026-04-19 10:50 54.16276 2.03067 32298 ft 422 kts 316°
2026-04-19 10:51 54.20575 1.96268 32300 ft 421 kts 316°
2026-04-19 10:51 54.24876 1.89445 32302 ft 422 kts 316°
2026-04-19 10:52 54.29194 1.82574 32300 ft 425 kts 316°
2026-04-19 10:52 54.33518 1.75673 32302 ft 425 kts 316°
2026-04-19 10:53 54.37843 1.68750 32305 ft 425 kts 316°
2026-04-19 10:53 54.42163 1.61817 32307 ft 425 kts 316°
2026-04-19 10:54 54.46443 1.54924 32305 ft 423 kts 316°
2026-04-19 10:54 54.50729 1.48002 32315 ft 423 kts 316°
2026-04-19 10:55 54.55048 1.41002 32308 ft 430 kts 316°
2026-04-19 10:55 54.59435 1.33871 32307 ft 435 kts 315°
2026-04-19 10:56 54.63828 1.26715 32311 ft 437 kts 315°
2026-04-19 10:56 54.68235 1.19508 32306 ft 434 kts 315°
2026-04-19 10:57 54.72613 1.12326 32312 ft 433 kts 315°
2026-04-19 10:57 54.76978 1.05143 32314 ft 433 kts 315°
2026-04-19 10:58 54.81337 0.97945 32311 ft 433 kts 315°
2026-04-19 10:58 54.85704 0.90712 32306 ft 433 kts 315°
2026-04-19 10:59 54.90059 0.83480 32314 ft 434 kts 315°
2026-04-19 10:59 54.94415 0.76221 32314 ft 434 kts 315°
2026-04-19 11:00 54.98766 0.68950 32314 ft 434 kts 315°
2026-04-19 11:00 55.03113 0.61660 32321 ft 434 kts 315°
2026-04-19 11:01 55.07470 0.54330 32292 ft 436 kts 315°
2026-04-19 11:01 55.11810 0.47008 32313 ft 433 kts 315°
2026-04-19 11:02 55.15835 0.40196 32319 ft 433 kts 315°
2026-04-19 11:02 55.19634 0.33746 32318 ft 433 kts 315°
2026-04-19 11:03 55.23979 0.26348 32317 ft 433 kts 315°
2026-04-19 11:03 55.27904 0.19644 32328 ft 433 kts 315°
2026-04-19 11:04 55.32243 0.12210 32319 ft 437 kts 315°
2026-04-19 11:04 55.36589 0.04739 32319 ft 438 kts 315°
2026-04-19 11:05 55.40934 -0.02753 32309 ft 437 kts 315°
2026-04-19 11:05 55.45116 -0.09986 32320 ft 434 kts 315°
2026-04-19 11:06 55.49455 -0.17518 32320 ft 434 kts 315°
2026-04-19 11:06 55.53752 -0.25000 32329 ft 435 kts 315°
2026-04-19 11:07 55.58065 -0.32534 32319 ft 437 kts 315°
2026-04-19 11:07 55.62385 -0.40106 32322 ft 437 kts 315°
2026-04-19 11:08 55.66698 -0.47690 32322 ft 437 kts 315°
2026-04-19 11:08 55.71008 -0.55293 32319 ft 437 kts 315°
2026-04-19 11:09 55.75312 -0.62910 32319 ft 437 kts 315°
2026-04-19 11:09 55.79614 -0.70551 32336 ft 438 kts 315°
2026-04-19 11:10 55.83924 -0.78229 32323 ft 440 kts 315°
2026-04-19 11:10 55.88238 -0.85942 32323 ft 440 kts 315°
2026-04-19 11:11 55.92549 -0.93674 32323 ft 440 kts 315°
2026-04-19 11:11 55.96823 -1.01367 32323 ft 440 kts 315°
2026-04-19 11:12 56.01152 -1.09183 32319 ft 440 kts 315°
2026-04-19 11:12 56.05419 -1.16913 32319 ft 438 kts 315°
2026-04-19 11:13 56.09676 -1.24653 32318 ft 436 kts 315°
2026-04-19 11:13 56.13923 -1.32401 32319 ft 436 kts 315°
2026-04-19 11:14 56.18166 -1.40166 32327 ft 435 kts 315°
2026-04-19 11:14 56.22399 -1.47936 32324 ft 435 kts 314°
2026-04-19 11:15 56.26630 -1.55730 32323 ft 436 kts 314°
2026-04-19 11:15 56.30860 -1.63551 32325 ft 436 kts 314°
2026-04-19 11:16 56.35106 -1.71427 32323 ft 439 kts 314°
2026-04-19 11:16 56.39338 -1.79307 32319 ft 436 kts 314°
2026-04-19 11:17 56.43553 -1.87178 32320 ft 436 kts 314°
2026-04-19 11:17 56.47763 -1.95071 32320 ft 436 kts 314°
2026-04-19 11:18 56.51970 -2.02980 32317 ft 436 kts 314°
2026-04-19 11:18 56.56171 -2.10904 32322 ft 436 kts 315°
2026-04-19 11:19 56.60381 -2.18875 32314 ft 439 kts 314°
2026-04-19 11:19 56.64576 -2.26844 32310 ft 440 kts 314°
2026-04-19 11:20 56.68797 -2.34892 32299 ft 439 kts 315°
2026-04-19 11:20 56.72983 -2.42901 32301 ft 435 kts 315°
2026-04-19 11:21 56.77153 -2.50906 32302 ft 435 kts 315°
2026-04-19 11:22 56.83396 -2.62939 32305 ft 436 kts 315°
2026-04-19 11:22 56.87574 -2.71028 32304 ft 439 kts 314°
2026-04-19 11:23 56.91758 -2.79157 32301 ft 439 kts 314°
2026-04-19 11:23 56.95934 -2.87301 32301 ft 439 kts 314°
2026-04-19 11:24 57.00153 -2.95557 32266 ft 438 kts 315°
2026-04-19 11:24 57.04242 -3.03588 32306 ft 433 kts 315°
2026-04-19 11:25 57.08351 -3.11684 32303 ft 433 kts 315°
2026-04-19 11:25 57.12463 -3.19812 32303 ft 434 kts 315°
2026-04-19 11:26 57.16573 -3.27970 32302 ft 435 kts 314°
2026-04-19 11:26 57.20680 -3.36147 32313 ft 434 kts 314°
2026-04-19 11:27 57.24779 -3.44338 32312 ft 435 kts 314°
2026-04-19 11:27 57.28879 -3.52558 32312 ft 434 kts 314°
2026-04-19 11:28 57.32937 -3.60725 32326 ft 433 kts 314°
2026-04-19 11:28 57.36984 -3.68899 32321 ft 430 kts 314°
2026-04-19 11:29 57.41028 -3.77094 32319 ft 431 kts 314°
2026-04-19 11:29 57.45066 -3.85304 32320 ft 431 kts 314°
2026-04-19 11:30 57.49101 -3.93540 32317 ft 431 kts 314°
2026-04-19 11:30 57.53108 -4.01811 32320 ft 431 kts 311°
2026-04-19 11:31 57.56500 -4.11044 32321 ft 433 kts 304°
2026-04-19 11:31 57.59646 -4.20645 32321 ft 434 kts 303°
2026-04-19 11:32 57.62740 -4.30315 32320 ft 432 kts 304°
2026-04-19 11:32 57.65804 -4.39935 32329 ft 431 kts 304°
2026-04-19 11:33 57.68867 -4.49550 32336 ft 431 kts 304°
2026-04-19 11:33 57.71929 -4.59182 32336 ft 430 kts 304°
2026-04-19 11:34 57.74979 -4.68814 32339 ft 431 kts 304°
2026-04-19 11:34 57.78025 -4.78482 32337 ft 431 kts 304°
2026-04-19 11:35 57.81062 -4.88162 32336 ft 430 kts 304°
2026-04-19 11:35 57.84061 -4.97764 32350 ft 423 kts 304°
2026-04-19 11:36 57.87035 -5.07315 32350 ft 424 kts 304°
2026-04-19 11:36 57.90003 -5.16883 32355 ft 424 kts 304°
2026-04-19 11:37 57.92966 -5.26479 32354 ft 424 kts 304°
2026-04-19 11:37 57.95917 -5.36081 32355 ft 424 kts 304°
2026-04-19 11:38 57.98363 -5.44065 32358 ft 424 kts 304°
2026-04-19 11:38 58.01304 -5.53702 32342 ft 423 kts 304°
2026-04-19 11:39 58.04672 -5.64798 32360 ft 416 kts 304°
2026-04-19 11:39 58.07075 -5.72738 32359 ft 416 kts 304°
2026-04-19 11:40 58.09944 -5.82243 32358 ft 417 kts 304°
2026-04-19 11:40 58.12792 -5.91727 32350 ft 418 kts 304°
2026-04-19 11:41 58.15658 -6.01317 32350 ft 418 kts 304°
2026-04-19 11:41 58.18513 -6.10906 32347 ft 418 kts 304°
2026-04-19 11:42 58.21208 -6.20684 32316 ft 420 kts 300°
2026-04-19 11:42 58.23557 -6.30815 32343 ft 413 kts 299°
2026-04-19 11:43 58.25835 -6.40896 32362 ft 418 kts 299°
2026-04-19 11:43 58.28104 -6.51020 32342 ft 419 kts 298°
2026-04-19 11:44 58.30380 -6.61228 32362 ft 419 kts 298°
2026-04-19 11:44 58.32653 -6.71446 32363 ft 420 kts 298°
2026-04-19 11:45 58.34921 -6.81691 32359 ft 421 kts 298°
2026-04-19 11:45 58.37186 -6.91972 32363 ft 421 kts 298°
2026-04-19 11:46 58.39441 -7.02260 32365 ft 421 kts 298°
2026-04-19 11:46 58.41689 -7.12566 32368 ft 421 kts 298°
2026-04-19 11:47 58.43929 -7.22881 32369 ft 421 kts 298°
2026-04-19 11:47 58.46162 -7.33217 32368 ft 421 kts 298°
2026-04-19 11:48 58.48386 -7.43567 32367 ft 421 kts 298°
2026-04-19 11:48 58.50597 -7.53912 32357 ft 420 kts 298°
2026-04-19 11:49 58.52776 -7.64172 32368 ft 414 kts 298°
2026-04-19 11:49 58.54937 -7.74375 32368 ft 413 kts 298°
2026-04-19 11:50 58.57090 -7.84580 32370 ft 413 kts 298°
2026-04-19 11:50 58.59237 -7.94815 32371 ft 414 kts 298°
2026-04-19 11:51 58.61373 -8.05058 32372 ft 414 kts 298°
2026-04-19 11:51 58.63501 -8.15312 32371 ft 414 kts 298°
2026-04-19 11:52 58.65617 -8.25566 32380 ft 411 kts 297°
2026-04-19 11:52 58.67703 -8.35739 32376 ft 409 kts 297°
2026-04-19 11:53 58.69784 -8.45912 32360 ft 409 kts 297°
2026-04-19 11:53 58.71856 -8.56092 32357 ft 408 kts 297°
2026-04-19 11:54 58.73898 -8.66201 32388 ft 403 kts 297°
2026-04-19 11:54 58.75913 -8.76208 32371 ft 404 kts 297°
2026-04-19 11:55 58.77937 -8.86298 32312 ft 404 kts 297°
2026-04-19 11:55 58.79953 -8.96408 32373 ft 403 kts 297°
2026-04-19 11:56 58.81953 -9.06497 32374 ft 403 kts 297°
2026-04-19 11:56 58.83944 -9.16590 32370 ft 403 kts 297°
2026-04-19 11:57 58.85930 -9.26708 32369 ft 403 kts 296°
2026-04-19 11:57 58.87909 -9.36842 32370 ft 403 kts 296°
2026-04-19 11:58 58.89880 -9.46987 32372 ft 403 kts 296°
2026-04-19 11:58 58.91844 -9.57143 32344 ft 403 kts 295°
2026-04-19 11:59 58.93805 -9.67346 32372 ft 406 kts 295°
2026-04-19 11:59 58.95767 -9.77606 32374 ft 406 kts 295°
2026-04-19 12:00 58.97718 -9.87866 32371 ft 405 kts 295°
2026-04-19 12:00 58.99662 -9.98139 32371 ft 406 kts 295°
2026-04-19 12:01 59.01628 -10.08389 32370 ft 405 kts 296°
2026-04-19 12:01 59.03631 -10.18600 32368 ft 405 kts 296°
2026-04-19 12:02 59.05641 -10.28895 32247 ft 412 kts 295°
2026-04-19 12:02 59.07660 -10.39335 32499 ft 408 kts 295°
2026-04-19 12:02 59.08646 -10.44480 32747 ft 405 kts 295°
2026-04-19 12:03 59.09624 -10.49593 33013 ft 403 kts 295°
2026-04-19 12:03 59.10602 -10.54711 33179 ft 403 kts 295°
2026-04-19 12:03 59.11574 -10.59811 33357 ft 403 kts 295°
2026-04-19 12:03 59.12547 -10.64925 33537 ft 402 kts 295°
2026-04-19 12:04 59.13500 -10.69952 33713 ft 401 kts 295°
2026-04-19 12:04 59.14478 -10.75121 33872 ft 401 kts 295°
2026-04-19 12:04 59.15425 -10.80139 34062 ft 400 kts 295°
2026-04-19 12:04 59.16394 -10.85291 34233 ft 399 kts 295°
2026-04-19 12:05 59.17335 -10.90303 34354 ft 400 kts 295°
2026-04-19 12:05 59.19245 -11.00511 34355 ft 401 kts 294°
2026-04-19 12:06 59.21150 -11.10760 34362 ft 402 kts 294°
2026-04-19 12:06 59.23052 -11.21047 34362 ft 403 kts 294°
2026-04-19 12:07 59.24942 -11.31328 34363 ft 403 kts 294°
2026-04-19 12:07 59.26827 -11.41638 34356 ft 403 kts 294°
2026-04-19 12:08 59.28706 -11.51964 34361 ft 403 kts 294°
2026-04-19 12:08 59.30577 -11.62300 34362 ft 403 kts 293°
2026-04-19 12:09 59.32439 -11.72644 34354 ft 404 kts 292°
2026-04-19 12:09 59.34309 -11.83087 34358 ft 407 kts 292°
2026-04-19 12:10 59.36175 -11.93574 34355 ft 406 kts 292°
2026-04-19 12:10 59.38024 -12.04021 34355 ft 406 kts 292°
2026-04-19 12:11 59.39866 -12.14481 34356 ft 406 kts 292°
2026-04-19 12:11 59.41699 -12.24961 34349 ft 406 kts 292°
2026-04-19 12:12 59.43523 -12.35446 34349 ft 406 kts 292°
2026-04-19 12:12 59.45343 -12.45970 34346 ft 408 kts 291°
2026-04-19 12:13 59.47178 -12.56630 34347 ft 414 kts 291°
2026-04-19 12:13 59.49012 -12.67350 34347 ft 413 kts 291°
2026-04-19 12:14 59.50831 -12.78062 34344 ft 413 kts 291°
2026-04-19 12:14 59.52647 -12.88804 34345 ft 413 kts 291°
2026-04-19 12:15 59.54453 -12.99549 34345 ft 412 kts 290°
2026-04-19 12:15 59.56243 -13.10269 34348 ft 411 kts 290°
2026-04-19 12:16 59.58016 -13.20939 34345 ft 414 kts 289°
2026-04-19 12:16 59.59812 -13.31819 34341 ft 419 kts 289°
2026-04-19 12:17 59.61606 -13.42762 34341 ft 419 kts 289°
2026-04-19 12:17 59.63391 -13.53716 34342 ft 419 kts 289°
2026-04-19 12:18 59.65178 -13.64748 34344 ft 424 kts 289°
2026-04-19 12:18 59.66983 -13.75951 34339 ft 430 kts 289°
2026-04-19 12:19 59.68802 -13.87317 34337 ft 436 kts 289°
2026-04-19 12:19 59.70634 -13.98843 34334 ft 441 kts 289°
2026-04-19 12:20 59.72468 -14.10466 34325 ft 441 kts 288°
2026-04-19 12:20 59.74284 -14.22049 34340 ft 439 kts 288°
2026-04-19 12:21 59.76085 -14.33614 34319 ft 439 kts 288°
2026-04-19 12:21 59.77878 -14.45209 34335 ft 439 kts 288°
2026-04-19 12:22 59.79662 -14.56813 34320 ft 439 kts 288°
2026-04-19 12:22 59.81438 -14.68445 34315 ft 442 kts 287°
2026-04-19 12:23 59.83221 -14.80206 34323 ft 447 kts 287°
2026-04-19 12:23 59.85010 -14.92089 34318 ft 448 kts 287°
2026-04-19 12:24 59.86783 -15.03962 34322 ft 447 kts 287°
2026-04-19 12:24 59.88543 -15.15826 34326 ft 447 kts 287°
2026-04-19 12:25 59.89994 -15.25678 34313 ft 445 kts 287°
2026-04-19 12:25 59.91728 -15.37503 34307 ft 445 kts 286°
2026-04-19 12:26 59.93461 -15.49423 34308 ft 450 kts 285°
2026-04-19 12:26 59.95195 -15.61445 34306 ft 451 kts 285°
2026-04-19 12:27 59.96923 -15.73497 34306 ft 451 kts 285°
2026-04-19 12:27 59.98635 -15.85534 34301 ft 451 kts 285°
2026-04-19 12:28 60.01186 -16.03630 34297 ft 451 kts 285°
2026-04-19 12:28 60.02873 -16.15718 34289 ft 452 kts 284°
2026-04-19 12:29 60.04561 -16.27912 34300 ft 457 kts 284°
2026-04-19 12:29 60.06243 -16.40146 34292 ft 456 kts 284°
2026-04-19 12:30 60.07914 -16.52392 34286 ft 455 kts 284°
2026-04-19 12:30 60.09571 -16.64636 34286 ft 455 kts 284°
2026-04-19 12:31 60.11206 -16.76818 34277 ft 455 kts 284°
2026-04-19 12:31 60.12852 -16.89168 34274 ft 456 kts 283°
2026-04-19 12:32 60.14482 -17.01503 34276 ft 460 kts 283°
2026-04-19 12:32 60.16104 -17.13876 34271 ft 461 kts 283°
2026-04-19 12:33 60.17723 -17.26323 34266 ft 461 kts 283°
2026-04-19 12:33 60.19332 -17.38791 34259 ft 461 kts 283°
2026-04-19 12:34 60.20926 -17.51252 34260 ft 460 kts 282°
2026-04-19 12:34 60.22509 -17.63731 34259 ft 460 kts 282°
2026-04-19 12:35 60.24085 -17.76266 34248 ft 463 kts 281°
2026-04-19 12:35 60.25654 -17.88845 34249 ft 463 kts 281°
2026-04-19 12:36 60.27212 -18.01433 34241 ft 463 kts 281°
2026-04-19 12:36 60.28757 -18.14039 34239 ft 463 kts 281°
2026-04-19 12:37 60.30289 -18.26639 34228 ft 463 kts 281°
2026-04-19 12:37 60.31809 -18.39257 34231 ft 463 kts 281°
2026-04-19 12:38 60.33319 -18.51899 34233 ft 465 kts 280°
2026-04-19 12:38 60.34826 -18.64644 34222 ft 467 kts 280°
2026-04-19 12:39 60.36321 -18.77395 34219 ft 467 kts 279°
2026-04-19 12:39 60.37805 -18.90162 34204 ft 467 kts 279°
2026-04-19 12:40 60.39274 -19.02931 34207 ft 467 kts 279°
2026-04-19 12:40 60.40735 -19.15726 34205 ft 466 kts 279°
2026-04-19 12:41 60.42183 -19.28530 34199 ft 468 kts 278°
2026-04-19 12:41 60.43628 -19.41444 34198 ft 471 kts 278°
2026-04-19 12:42 60.45055 -19.54294 34186 ft 471 kts 278°
2026-04-19 12:42 60.46477 -19.67234 34190 ft 471 kts 278°
2026-04-19 12:43 60.47885 -19.80182 34184 ft 470 kts 278°
2026-04-19 12:43 60.49280 -19.93115 34176 ft 470 kts 278°
2026-04-19 12:44 60.51494 -20.05702 34175 ft 479 kts 290°
2026-04-19 12:44 60.54442 -20.17924 34160 ft 483 kts 291°
2026-04-19 12:45 60.57506 -20.30102 34159 ft 484 kts 292°
2026-04-19 12:45 60.60561 -20.42300 34159 ft 484 kts 291°
2026-04-19 12:46 60.63584 -20.54527 34147 ft 483 kts 291°
2026-04-19 12:46 60.66588 -20.66794 34149 ft 483 kts 291°
2026-04-19 12:47 60.69575 -20.79062 34143 ft 483 kts 291°
2026-04-19 12:47 60.72554 -20.91359 34146 ft 483 kts 290°
2026-04-19 12:48 60.75524 -21.03695 34124 ft 487 kts 290°
2026-04-19 12:48 60.78512 -21.16173 34131 ft 488 kts 290°
2026-04-19 12:49 60.81489 -21.28667 34123 ft 488 kts 290°
2026-04-19 12:49 60.84450 -21.41175 34130 ft 488 kts 290°
2026-04-19 12:50 60.87398 -21.53698 34138 ft 487 kts 289°
2026-04-19 12:50 60.90332 -21.66233 34104 ft 487 kts 289°
2026-04-19 12:51 60.93260 -21.78814 34107 ft 487 kts 289°
2026-04-19 12:51 60.96171 -21.91399 34128 ft 487 kts 289°
2026-04-19 12:52 60.99072 -22.04013 34087 ft 487 kts 289°
2026-04-19 12:52 61.01958 -22.16641 34096 ft 487 kts 289°
2026-04-19 12:53 61.04835 -22.29295 34097 ft 487 kts 289°
2026-04-19 12:53 61.07697 -22.41960 34081 ft 487 kts 289°
2026-04-19 12:54 61.10550 -22.54669 34084 ft 487 kts 289°
2026-04-19 12:54 61.13388 -22.67377 34080 ft 487 kts 288°
2026-04-19 12:55 61.16194 -22.80027 34102 ft 487 kts 288°
2026-04-19 12:55 61.19018 -22.92842 34074 ft 491 kts 288°
2026-04-19 12:56 61.21846 -23.05755 34062 ft 492 kts 288°
2026-04-19 12:56 61.24670 -23.18707 34046 ft 492 kts 288°
2026-04-19 12:57 61.27475 -23.31663 34047 ft 491 kts 288°
2026-04-19 12:57 61.30268 -23.44628 34049 ft 491 kts 288°
2026-04-19 12:58 61.33051 -23.57655 34026 ft 493 kts 287°
2026-04-19 12:58 61.35826 -23.70702 34029 ft 492 kts 287°
2026-04-19 12:59 61.38583 -23.83747 34032 ft 493 kts 287°
2026-04-19 12:59 61.41339 -23.96909 34011 ft 497 kts 287°
2026-04-19 13:00 61.44100 -24.10141 34012 ft 497 kts 286°
2026-04-19 13:00 61.46848 -24.23389 34012 ft 496 kts 286°
2026-04-19 13:01 61.49579 -24.36644 33989 ft 496 kts 286°
2026-04-19 13:01 61.52297 -24.49932 33995 ft 496 kts 286°
2026-04-19 13:02 61.55002 -24.63252 33996 ft 497 kts 286°
2026-04-19 13:02 61.57693 -24.76584 34025 ft 497 kts 285°
2026-04-19 13:03 61.60383 -24.90000 33974 ft 500 kts 285°
2026-04-19 13:03 61.63074 -25.03516 33973 ft 501 kts 285°
2026-04-19 13:04 61.65751 -25.17037 33956 ft 501 kts 285°
2026-04-19 13:04 61.68418 -25.30603 33956 ft 501 kts 285°
2026-04-19 13:05 61.71063 -25.44153 33956 ft 500 kts 285°
2026-04-19 13:05 61.73696 -25.57731 33936 ft 499 kts 285°
2026-04-19 13:06 61.76310 -25.71300 33935 ft 499 kts 285°
2026-04-19 13:06 61.78911 -25.84894 33951 ft 499 kts 284°
2026-04-19 13:07 61.81496 -25.98496 33923 ft 498 kts 284°
2026-04-19 13:07 61.84066 -26.12123 33917 ft 498 kts 284°
2026-04-19 13:08 61.86605 -26.25682 33916 ft 498 kts 284°
2026-04-19 13:08 61.89144 -26.39330 33893 ft 497 kts 284°
2026-04-19 13:09 61.91666 -26.52977 33910 ft 497 kts 283°
2026-04-19 13:09 61.94174 -26.66646 33892 ft 497 kts 283°
2026-04-19 13:10 61.96671 -26.80352 33933 ft 497 kts 283°
2026-04-19 13:10 61.99153 -26.94086 33880 ft 499 kts 283°
2026-04-19 13:11 62.01634 -27.07902 33877 ft 500 kts 283°
2026-04-19 13:11 62.04104 -27.21744 33859 ft 499 kts 282°
2026-04-19 13:12 62.06158 -27.33335 33856 ft 499 kts 282°
2026-04-19 13:12 62.08598 -27.47203 33856 ft 499 kts 282°
2026-04-19 13:13 62.11026 -27.61098 33857 ft 499 kts 282°
2026-04-19 13:13 62.13436 -27.75003 33839 ft 499 kts 282°
2026-04-19 13:14 62.15835 -27.88951 33857 ft 500 kts 282°
2026-04-19 13:14 62.18228 -28.03002 33841 ft 505 kts 282°
2026-04-19 13:15 62.20627 -28.17152 33823 ft 505 kts 282°
2026-04-19 13:15 62.23014 -28.31293 33823 ft 505 kts 282°
2026-04-19 13:16 62.25366 -28.45370 33823 ft 505 kts 282°
2026-04-19 13:16 62.27718 -28.59564 33806 ft 504 kts 281°
2026-04-19 13:17 62.30054 -28.73777 33808 ft 504 kts 281°
2026-04-19 13:17 62.32377 -28.88021 33807 ft 505 kts 281°
2026-04-19 13:18 62.34691 -29.02336 33790 ft 510 kts 281°
2026-04-19 13:18 62.37020 -29.16856 33790 ft 514 kts 281°
2026-04-19 13:19 62.39344 -29.31418 33776 ft 513 kts 281°
2026-04-19 13:19 62.41645 -29.45967 33774 ft 513 kts 281°
2026-04-19 13:20 62.43929 -29.60542 33779 ft 513 kts 280°
2026-04-19 13:20 62.46202 -29.75159 33762 ft 513 kts 280°
2026-04-19 13:21 62.48461 -29.89820 33763 ft 514 kts 280°
2026-04-19 13:21 62.50731 -30.04533 33769 ft 520 kts 282°
2026-04-19 13:22 62.53502 -30.19198 33755 ft 531 kts 286°
2026-04-19 13:22 62.56478 -30.33925 33757 ft 535 kts 286°
2026-04-19 13:23 62.57451 -30.38817 33752 ft 534 kts 286°